Location: Acton
(51.4942°N, 0.2232°W)
Time: 09:07:22
(UTC+00:00)

X-37B - Pass Details

Date: 03 February 2022
Orbit: 329 x 342 km, 45.0° (Epoch: 18 May)

Event Time Altitude Azimuth Distance (km) Brightness Sun altitude
Rises 18:20:45 0° 255° (WSW) 2,122 6.3 -13.7°
Reaches altitude 10° 18:23:02 10° 239° (WSW) 1,281 4.3 -14.0°
Maximum altitude 18:25:18 21° 186° (S) 822 2.4 -14.4°
Enters shadow 18:26:44 15° 146° (SSE) 1,027 2.5 -14.6°
